Reflectivity
16 7 1 -20 18 32 18 -15 -9 27 -7 12 3 13 25 19 21 20 -3 14 -20 -20 -20 -20 -20 -20 -20 -20 -20 -20 -20 -20 -20 -20 -20 -20 -20 -20
11 3 -13 -4 -13 -20 -16 21 25 12 14 8 -19 6 -16 -20 17 15 24 20 -9 -20 -20 -20 -20 -20 -20 -20 -20 -20 -20 -20 -20 -20 -20 -20 -10 -20
20 -10 9 23 -19 -3 -7 -16 16 25 17 4 -20 -17 -20 17 13 0 11 -12 -20 -20 -20 -20 -20 -20 -20 -20 -20 -20 -20 -20 -20 -20 -20 -20 -20 -20
-19 6 4 -13 12 -12 3 -10 29 24 11 10 5 15 8 22 -12 -20 -14 -20 -20 -20 -20 -20 -20 -20 -20 -20 -20 -20 -20 -20 -17 -20 -20 -20 -20 -20
10 17 10 -3 -12 14 -8 25 14 26 24 -0 15 18 8 -9 9 -4 -12 -20 -20 -20 -20 -20 -20 -20 -20 -20 -20 -20 -20 -20 -20 -20 -20 -20 -20 -16
-18 -15 -18 10 20 2 -4 15 15 21 21 16 21 24 14 19 19 -11 -20 -20 -20 -20 -20 -20 -20 -20 -20 -20 -20 -20 -20 -20 -20 -20 -20 -20 -20 -20
-20 4 -9 9 20 8 8 4 6 20 6 18 10 16 23 18 -8 -20 -20 -20 -20 -19 -20 -20 -20 -20 -20 -20 -20 -20 -20 -20 -20 -20 -20 -20 -20 -20
18 17 19 8 10 5 -3 12 7 -9 16 27 23 28 28 16 -20 -20 -20 -20 -20 -20 -20 -20 -20 -20 -20 -20 -20 -20 -20 -20 -20 -20 -20 -20 -20 -20
19 -10 -9 6 12 -8 16 19 18 13 18 21 4 -1 -9 -11 -20 -20 -20 -20 -20 -20 -18 -20 -20 -20 -20 -20 -20 -20 -20 -20 -20 -20 -20 -20 -3 0
-1 23 6 -13 -0 -13 -16 -5 18 19 12 -9 -9 -10 -18 -20 -20 -20 -18 -17 -20 -18 -8 -17 -20 -20 -20 -20 -20 -20 -20 -20 -20 -20 -20 -18 -3 -17
15 15 -14 -5 14 18 17 6 18 19 -6 -20 -18 -20 -20 -20 -19 -8 5 6 -16 -20 -20 -20 -20 -20 -20 -20 -20 -20 -20 -20 -20 -20 -20 -20 -10 -1
10 2 15 20 22 17 26 24 -0 -16 -10 -19 -20 -20 -19 -6 -2 -2 -2 -1 -5 -20 -20 -20 -20 -20 -20 -20 -20 -20 -20 -20 -20 -20 -20 -20 -20 -20
23 9 4 13 18 14 23 -5 0 -19 -20 -20 -20 -20 -20 -20 -19 -16 -19 -20 -20 -20 -20 -20 -20 -20 -20 -20 -20 -20 -20 -20 -20 -20 -20 -20 -20 -20
15 3 5 18 20 8 -8 -11 -12 -16 -17 -20 -20 -20 -20 -20 -20 -20 -20 -20 -20 -20 -20 -20 -20 -20 -20 -20 -20 -20 -20 -20 -20 -20 -20 -20 -20 -20
4 16 24 9 4 12 -17 -20 -20 -20 -20 -20 -20 -20 -20 -20 -20 -20 -20 -20 -20 -20 -20 -20 -20 -20 -20 -20 -20 -20 -20 -20 -20 -20 -20 -20 -20 -20
21 2 -13 -20 -20 -20 -20 -20 -20 -20 -20 -20 -20 -20 -20 -20 -20 -20 -20 -20 -20 -20 -20 -20 -20 -20 -20 -20 -20 -20 -20 -20 -20 -20 -20 -20 -20 -20
-13 -15 -20 -20 -20 -20 -20 -20 -20 -20 -20 -20 -20 -20 -20 -20 -20 -20 -20 -20 -20 -20 -20 -20 -20 -20 -20 -20 -20 -20 -20 -20 -20 -20 -20 -20 -20 -20
-19 -20 -20 -20 -20 -20 -20 -20 -20 -20 -20 -20 -20 -20 -20 -20 -20 -20 -20 -20 -20 -20 -20 -20 -20 -20 -20 -20 -20 -20 -20 -20 -20 -20 -20 -20 -20 -20
-20 -20 -20 -20 -20 -20 -20 -20 -20 -20 -20 -20 -20 -20 -20 -20 -20 -20 -20 -20 -20 -20 -20 -20 -20 -20 -20 -20 -20 -20 -20 -20 -20 -20 -20 -20 -20 -20
-20 -20 -20 -20 -20 -20 -20 -20 -20 -20 -20 -20 -20 -20 -20 -20 -20 -20 -20 -20 -20 -20 -20 -20 -20 -20 -18 -14 -11 -20 -20 -20 -20 -20 -20 -20 -20 -20
-20 -20 -20 -20 -20 -20 -20 -20 -20 -20 -20 -20 -20 -20 -20 -20 -20 -20 -20 -20 -20 -20 -20 -20 -20 -10 -20 -20 -20 -20 -20 -20 -20 -20 -20 -20 -20 -20
-20 -20 -20 -20 -20 -20 -20 -20 -20 -20 -20 -20 -20 -20 -20 -20 -20 -20 -20 -20 -20 -20 -20 -20 -20 -20 -20 -20 -20 -20 -20 -20 -20 -20 -20 -20 -10 -18
-20 -20 -20 -20 -20 -20 -20 -20 -20 -20 -20 -20 -20 -20 -20 -20 -20 -20 -20 -20 -20 -20 -20 -20 -20 -20 -20 -20 -20 -20 -20 -20 -20 -20 -20 -20 -20 -20
Wind_Speed
9 8 5 5 6 5 4 5 6 5 6 4 3 6 6 6 7 5 5 9 7 4 2 2 4 4 3 5 6 7 8 9 10 12 15 15 17 18
5 8 7 4 5 4 5 5 3 4 4 2 3 3 6 5 9 5 5 8 7 4 3 4 5 4 4 6 6 7 7 8 10 12 14 15 16 18
7 8 9 8 6 5 4 4 4 3 4 2 2 3 3 8 5 4 4 4 2 4 3 5 6 5 5 7 9 8 7 9 9 10 12 14 17 19
9 10 8 6 8 7 7 7 6 4 5 6 2 2 3 4 4 5 3 3 2 3 5 6 7 6 7 9 9 8 8 10 11 12 12 15 17 19
7 8 9 9 7 6 6 6 5 4 4 6 4 2 3 2 3 2 2 2 2 4 3 4 4 4 8 8 7 8 9 10 11 12 14 16 18 20
6 7 8 9 9 8 6 7 7 7 7 7 4 3 2 2 2 3 1 1 1 2 2 4 6 7 6 7 8 8 10 12 12 12 15 18 20 21
5 5 5 7 11 12 8 8 10 6 6 7 5 3 2 2 3 2 2 2 2 2 2 2 2 2 3 5 6 9 12 13 12 15 19 20 20 21
7 5 6 10 11 15 13 15 13 13 8 5 3 5 4 3 3 3 3 2 2 1 2 2 1 2 2 3 10 11 10 12 17 18 18 19 21 23
8 8 7 5 11 10 16 16 13 9 8 5 9 4 4 4 5 4 2 2 2 1 1 2 1 3 2 4 10 8 12 15 17 18 18 21 21 22
8 9 10 10 10 13 14 14 11 8 7 6 8 6 6 5 5 4 4 4 3 2 2 1 2 3 3 4 6 7 15 16 18 19 20 20 21 23
9 10 11 13 20 21 15 15 14 12 16 21 19 17 15 13 9 5 2 3 2 1 3 1 3 4 3 3 3 12 15 17 19 20 19 21 22 24
10 12 19 15 21 20 13 13 14 10 11 10 9 12 11 11 13 6 2 3 3 2 3 2 2 3 4 3 3 4 4 13 18 18 20 23 23 9
8 8 8 20 19 19 16 9 12 11 15 9 7 6 6 6 5 5 5 4 3 2 3 3 1 3 0 4 3 3 3 8 7 9 16 22 23 19
10 8 13 22 20 18 12 22 21 15 7 7 6 5 5 4 4 4 4 4 3 2 1 2 2 1 2 5 5 5 7 7 4 6 9 15 20 21
9 15 22 21 21 17 21 20 16 7 6 6 6 5 4 4 4 3 4 4 4 3 2 1 2 2 2 5 7 8 11 5 6 10 9 10 10 10
19 13 15 16 16 14 11 8 5 5 6 6 5 5 4 3 4 2 2 3 3 3 4 4 3 1 3 4 5 8 6 4 10 10 10 10 9 8
13 9 7 7 8 7 6 5 5 5 6 5 5 4 5 4 4 2 2 2 3 3 3 4 5 5 6 6 2 4 6 5 7 9 11 12 10 9
9 9 8 7 7 6 6 6 5 7 5 5 4 4 4 3 2 1 3 3 2 3 3 3 4 4 4 5 6 4 3 6 8 8 8 9 11 13
8 7 7 6 6 5 5 5 5 4 5 5 4 4 3 2 4 3 2 2 2 3 4 2 3 2 5 6 4 6 8 8 7 9 8 8 11 13
6 7 6 6 6 6 5 5 5 5 5 4 4 3 2 2 2 2 2 1 2 3 3 3 2 2 2 6 7 9 14 6 7 8 9 9 11 20
6 6 5 6 5 5 5 5 5 4 4 4 3 3 3 3 2 2 2 5 5 2 4 3 4 14 2 3 5 6 5 12 12 8 7 7 5 7
6 6 5 5 6 5 5 5 4 4 4 3 3 3 2 3 2 2 2 1 2 2 2 4 5 4 3 1 5 7 8 10 13 12 12 7 6 6
6 6 5 5 5 5 5 5 5 4 4 4 3 2 3 2 2 2 1 1 3 2 3 3 3 3 2 2 8 4 7 10 6 9 6 14 21 17
Wind_Direction
196 197 189 183 193 186 169 159 142 170 199 194 173 184 180 174 180 168 159 174 169 186 209 269 268 272 261 313 319 323 325 322 322 316 315 315 311 311
178 181 187 172 178 172 167 164 161 139 143 154 187 151 165 147 160 146 153 159 172 192 252 274 289 280 292 307 307 318 321 316 321 321 315 315 317 320
174 183 190 173 183 181 180 181 167 149 126 106 100 117 109 140 120 114 134 146 177 213 253 302 294 257 275 306 310 314 314 317 321 318 317 325 322 319
181 178 188 178 184 181 177 180 180 147 126 138 129 121 114 124 130 145 159 143 133 264 278 291 287 258 283 309 315 306 312 320 326 322 323 319 318 315
181 187 181 173 179 173 177 165 147 116 103 139 128 112 97 132 137 132 140 151 210 227 288 296 295 293 300 307 302 297 314 323 318 316 315 318 315 313
174 182 170 181 176 166 155 150 135 121 117 117 97 111 118 151 129 133 138 139 346 67 326 297 298 301 314 312 320 313 322 317 315 312 312 312 315 316
131 136 151 164 162 164 153 151 137 126 128 128 122 121 143 145 165 129 114 156 68 49 320 299 330 310 300 334 326 316 318 314 312 311 316 318 316 314
135 123 129 138 156 163 162 159 154 147 148 136 135 157 138 141 121 144 135 127 178 9 348 296 271 290 298 316 324 324 318 329 326 322 320 317 318 315
132 128 120 136 133 134 132 121 122 133 138 126 142 142 132 156 133 115 125 119 137 81 258 257 324 312 303 317 318 319 351 335 332 328 319 323 317 318
125 128 128 122 125 121 110 92 79 70 76 83 94 97 100 114 120 132 137 118 98 70 350 339 328 276 334 315 314 349 343 340 334 327 325 321 323 319
114 115 120 118 127 120 109 105 92 87 91 98 101 104 105 109 115 113 120 139 119 105 352 34 2 317 313 308 323 343 337 334 332 330 325 325 325 322
113 121 124 127 127 117 110 116 112 116 109 91 83 76 71 88 87 70 112 116 105 52 349 66 344 346 321 288 310 309 304 319 330 326 327 326 325 322
122 123 129 129 128 123 118 115 123 126 112 103 104 96 83 76 71 65 60 82 97 85 21 89 329 321 291 300 287 301 308 317 311 310 315 323 325 327
121 119 122 124 122 119 115 129 126 119 116 116 110 99 98 87 75 71 71 75 83 131 72 122 164 136 302 305 295 313 319 311 297 306 321 317 319 319
116 119 121 120 123 124 127 129 124 122 121 114 110 105 90 91 80 63 51 56 62 45 46 69 155 265 203 277 291 306 322 318 311 323 322 317 313 311
118 114 114 114 115 118 111 110 104 106 112 112 110 109 100 78 78 64 54 21 74 353 351 27 12 176 270 230 251 283 284 290 314 317 314 309 310 303
116 106 99 101 101 100 95 89 86 91 103 111 115 115 111 100 86 57 62 53 67 9 347 358 318 291 266 257 287 251 288 292 302 311 318 317 311 302
112 117 115 116 118 121 117 109 102 111 105 105 97 94 95 97 96 67 67 55 46 8 331 326 315 332 333 310 239 259 275 302 312 314 313 312 309 313
118 120 121 123 125 118 115 117 119 110 107 103 103 104 101 95 97 75 69 52 28 355 351 355 333 353 334 340 283 301 318 317 318 320 322 315 303 301
116 125 127 127 127 125 123 124 118 112 108 106 100 101 96 104 87 75 65 349 357 8 352 319 327 275 309 324 312 299 309 305 318 315 315 307 284 289
121 115 120 124 124 124 123 120 119 122 120 118 113 117 107 106 97 96 25 24 40 351 347 298 274 325 283 341 339 301 298 321 329 310 305 296 292 309
122 125 124 122 124 125 128 134 138 124 126 115 124 123 123 121 122 100 65 17 320 297 271 284 305 336 21 115 301 294 312 321 328 332 324 309 330 318
128 127 126 124 125 128 133 136 132 132 130 132 134 130 132 101 108 92 59 326 304 296 300 301 309 4 302 238 325 296 301 324 331 329 319 333 338 329